LNE437 SEQM-SEGU

Flight info

Callsign LNE437
Flight time 0h 42m
Altitude 30000
Route SEQM REBE3A TEMOX TEMOX2 SEGU
Aircraft A20N/M-SDE2E3FGHIRWXY/LB1

Departure

Time 2026-05-07 01:23
Airport Mariscal Sucre International Airport (SEQM)

Arrival

Time 2026-05-07 02:05
Airport José Joaquín de Olmedo International Airport (SEGU)
Time Latitude Longitude Altitude Speed Heading
2026-05-07 01:05 -0.12760 -78.35793 7855 ft 0 kts 178°
2026-05-07 01:14 -0.12755 -78.35793 7855 ft 1 kts 178°
2026-05-07 01:14 -0.12740 -78.35793 7853 ft 3 kts 178°
2026-05-07 01:14 -0.12719 -78.35794 7851 ft 3 kts 159°
2026-05-07 01:15 -0.12703 -78.35805 7848 ft 3 kts 149°
2026-05-07 01:15 -0.12695 -78.35814 7837 ft 0 kts 97°
2026-05-07 01:18 -0.12696 -78.35780 7848 ft 13 kts 89°
2026-05-07 01:18 -0.12690 -78.35639 7861 ft 25 kts 89°
2026-05-07 01:18 -0.12758 -78.35598 7867 ft 18 kts 182°
2026-05-07 01:19 -0.12937 -78.35592 7873 ft 34 kts 176°
2026-05-07 01:19 -0.13196 -78.35579 7885 ft 46 kts 178°
2026-05-07 01:19 -0.13569 -78.35566 7893 ft 58 kts 179°
2026-05-07 01:19 -0.13979 -78.35550 7904 ft 58 kts 176°
2026-05-07 01:20 -0.14244 -78.35502 7920 ft 20 kts 122°
2026-05-07 01:20 -0.14252 -78.35482 7924 ft 0 kts 101°
2026-05-07 01:20 -0.14252 -78.35481 7924 ft 1 kts 101°
2026-05-07 01:20 -0.14253 -78.35426 7917 ft 16 kts 85°
2026-05-07 01:21 -0.14201 -78.35370 7916 ft 0 kts 356°
2026-05-07 01:21 -0.14104 -78.35375 7916 ft 39 kts 357°
2026-05-07 01:22 -0.13654 -78.35391 7895 ft 90 kts 358°
2026-05-07 01:22 -0.12855 -78.35426 7873 ft 140 kts 357°
2026-05-07 01:22 -0.11745 -78.35472 7830 ft 179 kts 358°
2026-05-07 01:22 -0.10512 -78.35514 8264 ft 172 kts 359°
2026-05-07 01:23 -0.09268 -78.35581 8548 ft 182 kts 358°
2026-05-07 01:23 -0.07998 -78.35660 8965 ft 183 kts 359°
2026-05-07 01:23 -0.06725 -78.35857 9319 ft 190 kts 342°
2026-05-07 01:23 -0.05493 -78.36323 9880 ft 186 kts 339°
2026-05-07 01:24 -0.04305 -78.36798 10384 ft 184 kts 339°
2026-05-07 01:24 -0.03107 -78.37265 10783 ft 185 kts 341°
2026-05-07 01:24 -0.01891 -78.37725 11134 ft 188 kts 341°
2026-05-07 01:24 -0.00667 -78.38178 11499 ft 188 kts 342°
2026-05-07 01:25 0.00577 -78.38633 11827 ft 191 kts 342°
2026-05-07 01:25 0.01823 -78.39086 12160 ft 192 kts 342°
2026-05-07 01:25 0.03091 -78.39545 12567 ft 194 kts 343°
2026-05-07 01:25 0.04351 -78.40001 12817 ft 195 kts 342°
2026-05-07 01:26 0.05646 -78.40469 13102 ft 197 kts 342°
2026-05-07 01:26 0.06931 -78.40933 13383 ft 198 kts 342°
2026-05-07 01:26 0.08237 -78.41405 13613 ft 200 kts 342°
2026-05-07 01:26 0.09555 -78.41882 13863 ft 202 kts 342°
2026-05-07 01:27 0.10795 -78.42552 14148 ft 206 kts 317°
2026-05-07 01:27 0.11455 -78.43783 14311 ft 207 kts 274°
2026-05-07 01:27 0.11542 -78.45229 14529 ft 209 kts 280°
2026-05-07 01:27 0.11940 -78.46613 14745 ft 209 kts 288°
2026-05-07 01:28 0.12433 -78.48000 15056 ft 210 kts 290°
2026-05-07 01:28 0.12942 -78.49356 15317 ft 211 kts 291°
2026-05-07 01:28 0.13465 -78.50728 15565 ft 212 kts 291°
2026-05-07 01:28 0.13988 -78.52099 15804 ft 213 kts 291°
2026-05-07 01:29 0.14494 -78.53505 16054 ft 214 kts 284°
2026-05-07 01:29 0.14587 -78.54970 16260 ft 214 kts 255°
2026-05-07 01:29 0.13918 -78.56274 16413 ft 210 kts 220°
2026-05-07 01:29 0.12725 -78.57074 16616 ft 206 kts 202°
2026-05-07 01:30 0.11435 -78.57655 16825 ft 206 kts 199°
2026-05-07 01:30 0.10090 -78.58219 16928 ft 218 kts 199°
2026-05-07 01:30 0.08581 -78.58852 16796 ft 246 kts 200°
2026-05-07 01:30 0.06975 -78.59541 16945 ft 262 kts 200°
2026-05-07 01:31 0.05257 -78.60287 17157 ft 274 kts 200°
2026-05-07 01:31 0.03488 -78.61061 17545 ft 281 kts 201°
2026-05-07 01:31 0.01689 -78.61850 18042 ft 284 kts 201°
2026-05-07 01:31 -0.00119 -78.62644 18543 ft 288 kts 201°
2026-05-07 01:32 -0.01972 -78.63457 18967 ft 292 kts 200°
2026-05-07 01:32 -0.03854 -78.64283 19356 ft 295 kts 201°
2026-05-07 01:32 -0.05726 -78.65104 19818 ft 298 kts 201°
2026-05-07 01:32 -0.06995 -78.65660 20130 ft 299 kts 201°
2026-05-07 01:33 -0.09546 -78.66778 20682 ft 303 kts 201°
2026-05-07 01:33 -0.10857 -78.67353 20961 ft 305 kts 201°
2026-05-07 01:33 -0.12792 -78.68202 21382 ft 308 kts 201°
2026-05-07 01:33 -0.14778 -78.69072 21778 ft 311 kts 201°
2026-05-07 01:34 -0.16749 -78.69937 22253 ft 312 kts 201°
2026-05-07 01:34 -0.18749 -78.70814 22669 ft 315 kts 201°
2026-05-07 01:34 -0.20770 -78.71707 23074 ft 318 kts 203°
2026-05-07 01:34 -0.22703 -78.72833 23456 ft 324 kts 216°
2026-05-07 01:35 -0.24352 -78.74364 23837 ft 329 kts 225°
2026-05-07 01:35 -0.25906 -78.76076 24194 ft 332 kts 227°
2026-05-07 01:35 -0.27940 -78.78383 24662 ft 335 kts 227°
2026-05-07 01:35 -0.28971 -78.79552 24897 ft 336 kts 227°
2026-05-07 01:36 -0.30528 -78.81311 25295 ft 338 kts 226°
2026-05-07 01:36 -0.32080 -78.83059 25636 ft 340 kts 226°
2026-05-07 01:36 -0.33660 -78.84836 25917 ft 343 kts 226°
2026-05-07 01:36 -0.35261 -78.86634 26233 ft 346 kts 226°
2026-05-07 01:37 -0.36870 -78.88440 26541 ft 348 kts 226°
2026-05-07 01:37 -0.38492 -78.90260 26857 ft 351 kts 226°
2026-05-07 01:37 -0.40102 -78.92066 27153 ft 353 kts 226°
2026-05-07 01:37 -0.41746 -78.93911 27450 ft 356 kts 226°
2026-05-07 01:38 -0.43401 -78.95768 27751 ft 358 kts 226°
2026-05-07 01:38 -0.45069 -78.97640 28068 ft 361 kts 226°
2026-05-07 01:38 -0.46731 -78.99505 28288 ft 364 kts 226°
2026-05-07 01:38 -0.48425 -79.01405 28571 ft 366 kts 226°
2026-05-07 01:39 -0.50133 -79.03322 28847 ft 368 kts 226°
2026-05-07 01:39 -0.51827 -79.05223 29111 ft 371 kts 226°
2026-05-07 01:39 -0.53550 -79.07156 29390 ft 373 kts 226°
2026-05-07 01:39 -0.55279 -79.09096 29663 ft 374 kts 226°
2026-05-07 01:40 -0.57050 -79.11046 29836 ft 378 kts 223°
2026-05-07 01:40 -0.59010 -79.12730 29837 ft 375 kts 211°
2026-05-07 01:40 -0.61256 -79.14032 29615 ft 370 kts 204°
2026-05-07 01:40 -0.63584 -79.15145 29139 ft 370 kts 202°
2026-05-07 01:41 -0.65930 -79.16223 28652 ft 370 kts 202°
2026-05-07 01:41 -0.68251 -79.17287 28183 ft 370 kts 202°
2026-05-07 01:41 -0.70601 -79.18370 27714 ft 371 kts 202°
2026-05-07 01:41 -0.72951 -79.19457 27253 ft 371 kts 202°
2026-05-07 01:42 -0.75270 -79.20531 26828 ft 372 kts 202°
2026-05-07 01:42 -0.77626 -79.21625 26364 ft 373 kts 202°
2026-05-07 01:42 -0.79994 -79.22725 25929 ft 373 kts 202°
2026-05-07 01:42 -0.82332 -79.23812 25496 ft 374 kts 202°
2026-05-07 01:43 -0.84706 -79.24915 25069 ft 374 kts 202°
2026-05-07 01:43 -0.87034 -79.25997 24660 ft 374 kts 202°
2026-05-07 01:43 -0.89395 -79.27094 24243 ft 374 kts 202°
2026-05-07 01:43 -0.91773 -79.28200 23751 ft 374 kts 202°
2026-05-07 01:44 -0.94124 -79.29293 23277 ft 374 kts 202°
2026-05-07 01:44 -0.96498 -79.30397 22789 ft 374 kts 202°
2026-05-07 01:44 -0.98861 -79.31496 22307 ft 374 kts 202°
2026-05-07 01:44 -1.01212 -79.32589 21854 ft 373 kts 202°
2026-05-07 01:45 -1.03544 -79.33673 21382 ft 373 kts 202°
2026-05-07 01:45 -1.05906 -79.34771 20929 ft 372 kts 202°
2026-05-07 01:45 -1.08233 -79.35854 20486 ft 371 kts 202°
2026-05-07 01:45 -1.10577 -79.36944 20040 ft 370 kts 202°
2026-05-07 01:46 -1.12913 -79.38030 19606 ft 369 kts 202°
2026-05-07 01:46 -1.15251 -79.39117 19152 ft 369 kts 202°
2026-05-07 01:46 -1.17548 -79.40185 18712 ft 368 kts 203°
2026-05-07 01:46 -1.19881 -79.41270 18247 ft 367 kts 203°
2026-05-07 01:47 -1.22202 -79.42349 17726 ft 367 kts 203°
2026-05-07 01:47 -1.24487 -79.43412 17177 ft 365 kts 203°
2026-05-07 01:47 -1.26769 -79.44474 16721 ft 356 kts 203°
2026-05-07 01:47 -1.28962 -79.45495 16293 ft 339 kts 203°
2026-05-07 01:48 -1.31038 -79.46462 15827 ft 326 kts 203°
2026-05-07 01:48 -1.33068 -79.47407 15356 ft 314 kts 203°
2026-05-07 01:48 -1.35014 -79.48312 14903 ft 303 kts 203°
2026-05-07 01:48 -1.36901 -79.49189 14440 ft 294 kts 203°
2026-05-07 01:49 -1.38706 -79.50029 13998 ft 286 kts 203°
2026-05-07 01:49 -1.40490 -79.50858 13516 ft 279 kts 203°
2026-05-07 01:49 -1.42235 -79.51669 13007 ft 272 kts 203°
2026-05-07 01:49 -1.43941 -79.52462 12521 ft 266 kts 203°
2026-05-07 01:50 -1.45588 -79.53228 12041 ft 261 kts 203°
2026-05-07 01:50 -1.47224 -79.53988 11570 ft 256 kts 204°
2026-05-07 01:50 -1.48830 -79.54735 11090 ft 251 kts 204°
2026-05-07 01:50 -1.50396 -79.55464 10616 ft 247 kts 203°
2026-05-07 01:51 -1.51916 -79.56171 10256 ft 239 kts 203°
2026-05-07 01:51 -1.53377 -79.56852 10143 ft 221 kts 203°
2026-05-07 01:51 -1.54744 -79.57488 10089 ft 217 kts 203°
2026-05-07 01:51 -1.56116 -79.58125 10087 ft 217 kts 203°
2026-05-07 01:52 -1.57483 -79.58759 10088 ft 217 kts 203°
2026-05-07 01:52 -1.58842 -79.59390 10089 ft 217 kts 203°
2026-05-07 01:52 -1.60216 -79.60029 10086 ft 217 kts 203°
2026-05-07 01:52 -1.61576 -79.60661 10086 ft 217 kts 203°
2026-05-07 01:53 -1.62949 -79.61299 10035 ft 217 kts 203°
2026-05-07 01:53 -1.64323 -79.61938 9629 ft 217 kts 203°
2026-05-07 01:53 -1.65669 -79.62564 9307 ft 214 kts 204°
2026-05-07 01:53 -1.67021 -79.63192 9043 ft 213 kts 204°
2026-05-07 01:54 -1.68366 -79.63818 8758 ft 212 kts 204°
2026-05-07 01:54 -1.69689 -79.64433 8483 ft 211 kts 204°
2026-05-07 01:54 -1.71024 -79.65053 8212 ft 210 kts 204°
2026-05-07 01:54 -1.72351 -79.65671 7939 ft 209 kts 204°
2026-05-07 01:55 -1.73659 -79.66278 7668 ft 208 kts 204°
2026-05-07 01:55 -1.74978 -79.66892 7395 ft 207 kts 204°
2026-05-07 01:55 -1.76275 -79.67495 7131 ft 206 kts 205°
2026-05-07 01:55 -1.77575 -79.68099 6863 ft 205 kts 205°
2026-05-07 01:56 -1.78867 -79.68700 6603 ft 204 kts 205°
2026-05-07 01:56 -1.80123 -79.69284 6451 ft 194 kts 205°
2026-05-07 01:56 -1.81318 -79.69840 6263 ft 184 kts 205°
2026-05-07 01:56 -1.82476 -79.70378 5938 ft 184 kts 205°
2026-05-07 01:57 -1.83650 -79.70923 5530 ft 189 kts 205°
2026-05-07 01:57 -1.84863 -79.71488 4967 ft 199 kts 205°
2026-05-07 01:57 -1.86161 -79.72092 4378 ft 208 kts 205°
2026-05-07 01:57 -1.87486 -79.72709 3817 ft 213 kts 205°
2026-05-07 01:58 -1.88802 -79.73320 3567 ft 201 kts 205°
2026-05-07 01:58 -1.89992 -79.73873 3524 ft 179 kts 205°
2026-05-07 01:58 -1.91085 -79.74381 3533 ft 168 kts 205°
2026-05-07 01:58 -1.92119 -79.74863 3535 ft 168 kts 206°
2026-05-07 01:59 -1.93156 -79.75394 3565 ft 166 kts 210°
2026-05-07 01:59 -1.94190 -79.75965 3251 ft 173 kts 210°
2026-05-07 01:59 -1.95228 -79.76551 2896 ft 172 kts 209°
2026-05-07 01:59 -1.96267 -79.77111 2594 ft 166 kts 210°
2026-05-07 02:00 -1.97261 -79.77680 2527 ft 164 kts 211°
2026-05-07 02:00 -1.98245 -79.78250 2523 ft 165 kts 210°
2026-05-07 02:00 -1.99244 -79.78824 2523 ft 165 kts 210°
2026-05-07 02:00 -2.00230 -79.79389 2521 ft 165 kts 210°
2026-05-07 02:01 -2.01226 -79.79961 2460 ft 163 kts 210°
2026-05-07 02:01 -2.02202 -79.80525 2234 ft 159 kts 210°
2026-05-07 02:01 -2.03150 -79.81074 2048 ft 160 kts 210°
2026-05-07 02:01 -2.04127 -79.81640 2023 ft 163 kts 210°
2026-05-07 02:02 -2.05102 -79.82203 2024 ft 164 kts 211°
2026-05-07 02:02 -2.06093 -79.82775 1929 ft 163 kts 211°
2026-05-07 02:02 -2.07080 -79.83346 1707 ft 163 kts 211°
2026-05-07 02:02 -2.08042 -79.83903 1491 ft 158 kts 210°
2026-05-07 02:03 -2.08979 -79.84446 1282 ft 153 kts 210°
2026-05-07 02:03 -2.09902 -79.84980 1087 ft 153 kts 210°
2026-05-07 02:03 -2.10811 -79.85507 905 ft 153 kts 210°
2026-05-07 02:03 -2.11727 -79.86037 720 ft 151 kts 210°
2026-05-07 02:04 -2.12635 -79.86562 546 ft 149 kts 210°
2026-05-07 02:04 -2.13526 -79.87079 367 ft 146 kts 210°
2026-05-07 02:04 -2.14391 -79.87579 179 ft 144 kts 210°
2026-05-07 02:04 -2.15224 -79.88062 27 ft 138 kts 210°
2026-05-07 02:05 -2.15887 -79.88450 26 ft 83 kts 211°
2026-05-07 02:05 -2.16231 -79.88648 26 ft 31 kts 210°
2026-05-07 02:05 -2.16329 -79.88707 26 ft 9 kts 219°
2026-05-07 02:05 -2.16336 -79.88714 27 ft 2 kts 226°
2026-05-07 02:06 -2.16342 -79.88742 15 ft 7 kts 278°
2026-05-07 02:06 -2.16328 -79.88778 26 ft 0 kts 301°
2026-05-07 02:07 -2.16299 -79.88792 25 ft 10 kts
2026-05-07 02:07 -2.15983 -79.88613 28 ft 39 kts 31°
2026-05-07 02:07 -2.15733 -79.88469 26 ft 43 kts 30°
2026-05-07 02:08 -2.15479 -79.88322 25 ft 44 kts 30°
2026-05-07 02:08 -2.15256 -79.88205 24 ft 15 kts 319°
2026-05-07 02:08 -2.15218 -79.88298 28 ft 15 kts 295°
2026-05-07 02:08 -2.15151 -79.88398 26 ft 17 kts 341°
2026-05-07 02:09 -2.15030 -79.88340 25 ft 23 kts 29°
2026-05-07 02:09 -2.14985 -79.88363 25 ft 11 kts 304°
2026-05-07 02:09 -2.14970 -79.88385 25 ft 0 kts 304°